Location: Oberkirch
(48.5323°N, 8.0787°E)
Time: 07:24:25
(UTC+00:00)

SKYMED 2 - Pass Details

Date: 08 November 2025
Orbit: 621 x 623 km, 97.9° (Epoch: 13 December)

Event Time Altitude Azimuth Distance (km) Brightness Sun altitude
Rises 04:52:34 0° 176° (S) 2,893 7.1 -15.5°
Reaches altitude 10° 04:54:47 10° 181° (S) 1,992 6.2 -15.1°
Maximum altitude 04:59:02 55° 259° (W) 753 3.6 -14.4°
Drops below altitude 10° 05:03:20 10° 338° (NNW) 2,007 5.9 -13.7°
Sets 05:05:35 0° 343° (NNW) 2,918 6.7 -13.3°
